www.pogodaiklimat.ru

ПОГОДА в Холланде, MI

  • Прогноз погоды в Холланде
  • Монитор погоды в Холланде
  • Климат в Холланде

АРХИВ ПОГОДЫ в Холланде

Время (UTC), дата Ветер
(напр.,м/с)
 
Видим.   Явления Облачность Т
(С)
Тd
(С)
f
(%)
Тe
(С)
Тes
(С)
Комфортность

P
(гПа)

Po
(гПа)
Тmin
(С)
Tmax
(С)
R
(мм)
SD
(см)
20:53 24.03 СЗ  16 км    10/10 1950 м  +6.7  0.0  62  +4  +4    1019.5  993.8         
21:53 24.03 СЗ  16 км    10/0 2100 м
[средняя] 
+7.2  0.0  60  +5  +6    1019.3  993.5         
22:53 24.03 СЗ  16 км    10/0 2100 м
[средняя] 
+4.4  0.0  73  +1  +1    1019.6  993.8  +4.4  +10.0     
23:53 24.03 С  16 км    10/0 2250 м
[средняя] 
+4.4  -1.1  67  +1  +1    1019.8  994.2         
00:53 25.03 С  16 км    10/10 1650 м  +5.0  -0.6  67  +1  +1    1020.5  994.8         
01:53 25.03 С  16 км    10/10 1800 м  +5.6  -0.6  64  +3  +3    1020.4  994.8         
02:53 25.03 СВ  16 км    10/0 2100 м
[средняя] 
+6.1  -0.6  62  +3  +3    1020.8  995.2         
03:53 25.03 В  6
{9} 
16 км    10/0 2550 м
[средняя] 
+5.6  -0.6  64  +1  +1    1021.4  995.8         
04:53 25.03 В  6
{9} 
16 км    10/0 2100 м
[средняя] 
+3.3  -1.7  70  -2  -2    1022.0  996.5  +3.3  +6.7     
05:53 25.03 В  7
{10} 
16 км    10/0 2100 м
[средняя] 
+1.7  -3.3  69  -5  -5    1022.8  997.1         
06:53 25.03 В  16 км    ясно  +0.6  -4.4  69  -5  -5    1023.1  997.5         
07:53 25.03 СВ  16 км    ясно  0.0  -4.4  72  -5  -5    1023.3  997.5         
08:53 25.03 СВ  5
{9} 
16 км    ясно  0.0  -3.9  75  -7  -7    1023.3  997.5         
09:53 25.03 СВ  4
{9} 
16 км    ясно  -0.6  -4.4  75  -6  -6    1023.9  998.1         
10:53 25.03 СВ  16 км    ясно  -0.6  -6.7  63  -6  -6    1024.6  998.8  -0.6  +3.3     
11:53 25.03 СВ  4
{8} 
16 км    ясно  0.0  -7.8  56  -6  -5    1025.3  999.5         
12:53 25.03 СВ  4
{9} 
16 км    ясно  +1.1  -9.4  45  -4  -3    1026.0  1000.1         
13:53 25.03 В  16 км    ясно  +2.2  -10.6  38  -3  -2    1026.2  1000.4         
14:53 25.03 СВ  16 км    ясно  +3.9  -11.1  33  -0  +4    1026.3  1000.4         
15:53 25.03 СВ  16 км    ясно  +5.0  -11.7  29  +2  +9    1026.3  1000.4         
16:53 25.03 В  16 км    ясно  +7.2  -12.8  23  +4  +10    1026.3  1000.4  -0.6  +7.2     
17:53 25.03 СВ  16 км    ясно  +7.2  -13.3  22  +4  +11    1026.0  1000.1         
18:53 25.03 СЗ  16 км    ясно  +5.6  -7.8  37  +1  +3    1025.9  1000.1         
19:53 25.03 СЗ  16 км    ясно  +5.0  -7.8  39  -0  +1    1025.9  999.8         
20:53 25.03 СЗ  16 км    ясно  +5.0  -7.2  41  +1  +3    1025.8  999.8         
21:53 25.03 СЗ  16 км    ясно  +5.0  -6.7  42  +1  +2    1026.0  1000.1         
22:53 25.03 СЗ  16 км    ясно  +2.8  -7.2  48  -1  -1    1026.5  1000.4  +2.8  +8.3     
23:53 25.03 СЗ  16 км    ясно  +1.1  -7.2  54  -3  -3    1027.0  1000.8         
00:53 26.03 С  16 км    ясно  +1.7  -8.9  45  -2  -2    1027.6  1001.4         
01:53 26.03 С  16 км    ясно  +1.1  -10.6  41  -3  -3    1028.4  1002.4         
02:53 26.03 С  16 км    ясно  0.0  -11.1  43  -3  -3    1028.9  1002.8         
03:53 26.03 СВ  16 км    ясно  -1.1  -11.1  47  -3  -3    1029.0  1003.1         
04:53 26.03   16 км    ясно  -2.8  -10.6  55  -3  -3    1029.2  1003.1  -2.8  +2.8     
05:53 26.03 С  16 км    ясно  -2.2  -10.6  53  -5  -5    1030.0  1003.7         
06:53 26.03 С  16 км    ясно  -2.2  -11.7  48  -5  -5    1030.5  1004.4         
07:53 26.03   16 км    ясно  -2.8  -12.2  48  -3  -3    1030.5  1004.4         
08:53 26.03   16 км    ясно  -4.4  -9.4  68  -5  -5    1031.0  1004.7         
09:53 26.03   16 км    ясно  -5.0  -10.6  65  -6  -6    1031.6  1005.4         
10:53 26.03 СВ  16 км    ясно  -4.4  -10.0  65  -8  -8    1031.9  1005.7  -5.6  -2.2     
11:53 26.03 В  16 км    ясно  -1.1  -10.6  48  -5  -5    1032.4  1006.1         
12:53 26.03 В  16 км    ясно  +0.6  -12.2  38  -4  -3    1032.9  1006.7         
13:53 26.03 нст  16 км    ясно  +2.2  -12.8  32  -1  +2    1033.2  1007.1         
14:53 26.03 ЮВ  16 км    ясно  +3.3  -12.8  30  +1  +8    1033.4  1007.1         
15:53 26.03 нст  16 км    ясно  +4.4  -13.3  26  +3  +15  опасность
простуды 
1033.3  1007.1         
16:53 26.03 нст  16 км    ясно  +5.6  -13.3  24  +5  +18  опасность
простуды 
1032.8  1006.4  -4.4  +6.7     
17:53 26.03 С  16 км    ясно  +6.7  -9.4  31  +5  +15  опасность
простуды 
1031.9  1005.7         
18:53 26.03 СЗ  16 км    ясно  +6.1  -8.9  33  +3  +10    1031.3  1005.1         
19:53 26.03 З  16 км    ясно  +5.6  -10.6  30  +3  +8    1031.1  1004.7         

 

Местоположение метеостанции Tulip City Airport: широта 42.7461 долгота -86.0967 высота над уровнем моря 209 м.

В архиве по умолчанию представлена погода в Холланде за последние 1-2 суток. Обновление информации о фактической погоде в базе происходит ежечасно! Архивные данные за месяц целиком и за предыдущие месяцы Вы можете получить, выбрав интересующий диапазон дат из раскрывающегося списка и нажав кнопку "Ввод!".

Внимание! Архив погоды МЕТАР в базе сайта хранится не более 60 дней. Нет смысла пытаться выбрать более раннюю дату.

Внимание! Время в таблицах - всемирное. Для получения местного времени необходимо прибавить поправку, которая в Холланде равна -5 ч.

Ветер - указаны скорость ветра в м/с и направление, откуда дует ветер: С - северный, СВ - северо-восточный, В - восточный, ЮВ - юго-восточный, Ю - южный, ЮЗ - юго-западный, З - западный, СЗ - северо-западный.
Видимость - горизонтальная дальность видимости в метрах или километрах. При видимости от 1 до 10 км при отсутствии осадков обычно наблюдается дымка, при ухудшении видимости до 1 км и менее - туман. В сухую погоду видимость может ухудшаться дымом, пылью или мглою.
Атмосферные явления - указаны явления, наблюдавшиеся в указанный момент времени.
Облачность - указаны через наклонную черту верхняя и нижняя облачность в баллах и высота нижней границы облаков в метрах. Внимание: облачность, как и прочие метеорологические величины в США измеряются автоматическими метеостанциями. Указанные значения в баллах носят условный характер и показывают процент времени, в течение которого, в среднем, лазерный луч высотомера отражался от облаков обратно.
T - Температура воздуха - температура, измеренная на высоте 2 м над землей.
Td - Температура точки росы - температура, при понижении до которой содержащийся в воздухе водяной пар достигнет насыщения.
f - Относительная влажность воздуха - влажноcть воздуха, измеренная на высоте 2 м над землей.
Te - Эффективная температура - температура, которую ощущает одетый по сезону человек в тени. Характеристика душности погоды. При расчете учитывается влияние влажности воздуха и скорости ветра на теплоощущения человека.
Tes - Эффективная температура на солнце - температура, которую ощущает человек, с поправкой на солнечный нагрев. Характеристика знойности погоды. Зависит от высоты солнца над горизонтом, облачности и скорости ветра. Ночью, в пасмурную погоду, а также при ветре 12 м/с и более поправка равна нулю.
P - Атмосферное давление - приведенное к уровню моря атмосферное давление.
Po - Атмосферное давление - измеренное на уровне метеостанции атмосферное давление.
Tmin - Минимальная температура - минимум температуры воздуха на высоте 2 м над землей.
Tmax - Максимальная температура - максимум температуры воздуха на высоте 2 м над землей.
R - Количество осадков - Количество выпавших осадков за 3 или 6 часов, мм.
SD - Снежный покров - Высота снежного покрова, см.